CLF14 EGTE-EGTE

Flight info

Callsign CLF14
Flight time N/A
Altitude 9000
Route M5 SEDGEMOOR SVCS CHEDDAR RESR DCT BRI M4 J18DCT OX TURWESTON DCT YVL DCT EX
Aircraft AEST/L-SDFGRY/S

Departure

Time 2026-04-30 12:45
Airport Exeter International Airport (EGTE)

Arrival

Time N/A
Airport Exeter International Airport (EGTE)
Time Latitude Longitude Altitude Speed Heading
2026-04-30 12:33 50.73855 -3.41906 121 ft 0 kts 168°
2026-04-30 12:37 50.73838 -3.41896 94 ft 6 kts 156°
2026-04-30 12:38 50.73805 -3.41876 94 ft 4 kts 185°
2026-04-30 12:38 50.73757 -3.41887 94 ft 10 kts 185°
2026-04-30 12:38 50.73706 -3.41831 94 ft 9 kts 131°
2026-04-30 12:38 50.73659 -3.41744 94 ft 11 kts 129°
2026-04-30 12:39 50.73609 -3.41642 94 ft 12 kts 124°
2026-04-30 12:39 50.73576 -3.41516 94 ft 13 kts 96°
2026-04-30 12:39 50.73582 -3.41377 94 ft 13 kts 76°
2026-04-30 12:39 50.73593 -3.41238 94 ft 12 kts 90°
2026-04-30 12:40 50.73572 -3.41141 94 ft 7 kts 119°
2026-04-30 12:40 50.73557 -3.41128 94 ft 0 kts 191°
2026-04-30 12:42 50.73549 -3.41127 94 ft 7 kts 162°
2026-04-30 12:42 50.73477 -3.41072 94 ft 12 kts 208°
2026-04-30 12:43 50.73423 -3.41324 92 ft 39 kts 258°
2026-04-30 12:43 50.73342 -3.41856 92 ft 55 kts 256°
2026-04-30 12:43 50.73259 -3.42374 96 ft 39 kts 255°
2026-04-30 12:43 50.73211 -3.42681 94 ft 19 kts 262°
2026-04-30 12:44 50.73226 -3.42778 94 ft 7 kts 189°
2026-04-30 12:44 50.73225 -3.42698 94 ft 14 kts 77°
2026-04-30 12:44 50.73291 -3.42250 95 ft 77 kts 76°
2026-04-30 12:44 50.73466 -3.41240 119 ft 105 kts 81°
2026-04-30 12:45 50.73707 -3.40120 333 ft 117 kts 77°
2026-04-30 12:45 50.74033 -3.38888 715 ft 119 kts 71°
2026-04-30 12:45 50.74445 -3.37750 1070 ft 128 kts 60°
2026-04-30 12:45 50.75051 -3.36659 1405 ft 135 kts 47°
2026-04-30 12:46 50.75922 -3.36055 1590 ft 148 kts 17°
2026-04-30 12:46 50.76960 -3.36209 1867 ft 156 kts 348°
2026-04-30 12:46 50.77954 -3.37005 2163 ft 164 kts 334°
2026-04-30 12:46 50.78873 -3.38023 2355 ft 160 kts 323°
2026-04-30 12:47 50.79727 -3.39200 2392 ft 166 kts 319°
2026-04-30 12:47 50.80488 -3.40629 2459 ft 170 kts 307°
2026-04-30 12:47 50.81137 -3.42174 2583 ft 169 kts 296°
2026-04-30 12:47 50.81626 -3.43880 2641 ft 171 kts 285°
2026-04-30 12:48 50.81855 -3.45725 2733 ft 169 kts 270°
2026-04-30 12:48 50.82035 -3.47509 2766 ft 167 kts 289°
2026-04-30 12:48 50.82623 -3.49134 2838 ft 170 kts 298°
2026-04-30 12:48 50.83231 -3.50710 2922 ft 169 kts 305°
2026-04-30 12:49 50.84130 -3.51940 2955 ft 171 kts 326°
2026-04-30 12:49 50.85071 -3.53037 3221 ft 154 kts 326°
2026-04-30 12:49 50.85847 -3.53978 3688 ft 134 kts 328°
2026-04-30 12:49 50.86701 -3.54277 3944 ft 125 kts 23°
2026-04-30 12:50 50.87409 -3.53639 4089 ft 115 kts 57°
2026-04-30 12:50 50.87976 -3.52758 4203 ft 114 kts 60°
2026-04-30 12:50 50.88550 -3.51864 4340 ft 116 kts 59°
2026-04-30 12:50 50.89122 -3.50962 4498 ft 117 kts 60°
2026-04-30 12:51 50.89702 -3.50036 4650 ft 118 kts 60°
2026-04-30 12:51 50.90281 -3.49112 4801 ft 120 kts 60°
2026-04-30 12:51 50.90853 -3.48152 4944 ft 119 kts 62°
2026-04-30 12:51 50.91434 -3.47136 4960 ft 127 kts 62°
2026-04-30 12:52 50.92029 -3.46088 4976 ft 128 kts 62°
2026-04-30 12:52 50.92620 -3.45036 5017 ft 129 kts 62°
2026-04-30 12:52 50.93221 -3.43970 5048 ft 129 kts 62°
2026-04-30 12:52 50.93822 -3.42910 5104 ft 129 kts 62°
2026-04-30 12:53 50.94415 -3.41857 5166 ft 130 kts 62°
2026-04-30 12:53 50.95030 -3.40777 5190 ft 132 kts 62°
2026-04-30 12:53 50.95652 -3.39704 5243 ft 132 kts 62°
2026-04-30 12:53 50.96263 -3.38643 5252 ft 132 kts 62°
2026-04-30 12:54 50.96880 -3.37557 5263 ft 132 kts 62°
2026-04-30 12:54 50.97492 -3.36469 5274 ft 131 kts 62°
2026-04-30 12:54 50.98096 -3.35376 5246 ft 132 kts 62°
2026-04-30 12:54 50.98697 -3.34298 5263 ft 131 kts 62°
2026-04-30 12:55 50.99308 -3.33196 5298 ft 132 kts 62°
2026-04-30 12:55 50.99911 -3.32108 5321 ft 133 kts 62°
2026-04-30 12:55 51.00528 -3.31009 5338 ft 133 kts 61°
2026-04-30 12:55 51.01138 -3.29921 5347 ft 133 kts 61°
2026-04-30 12:56 51.01761 -3.28818 5355 ft 133 kts 61°
2026-04-30 12:56 51.02376 -3.27731 5360 ft 133 kts 61°
2026-04-30 12:56 51.02989 -3.26641 5380 ft 133 kts 61°
2026-04-30 12:56 51.03609 -3.25548 5408 ft 133 kts 61°
2026-04-30 12:57 51.04226 -3.24465 5434 ft 133 kts 61°
2026-04-30 12:57 51.04845 -3.23356 5446 ft 133 kts 61°
2026-04-30 12:57 51.05449 -3.22259 5465 ft 133 kts 61°
2026-04-30 12:57 51.06065 -3.21140 5510 ft 134 kts 61°
2026-04-30 12:58 51.06669 -3.20031 5537 ft 134 kts 61°
2026-04-30 12:58 51.07285 -3.18900 5543 ft 135 kts 61°
2026-04-30 12:58 51.07891 -3.17781 5571 ft 135 kts 61°
2026-04-30 12:58 51.08504 -3.16648 5600 ft 135 kts 61°
2026-04-30 12:59 51.09122 -3.15527 5579 ft 134 kts 60°
2026-04-30 12:59 51.09733 -3.14406 5572 ft 134 kts 60°
2026-04-30 12:59 51.10333 -3.13281 5589 ft 135 kts 61°
2026-04-30 12:59 51.10950 -3.12144 5619 ft 135 kts 60°
2026-04-30 13:00 51.11553 -3.11015 5678 ft 135 kts 60°
2026-04-30 13:00 51.12170 -3.09871 5688 ft 135 kts 60°
2026-04-30 13:00 51.12782 -3.08747 5718 ft 135 kts 60°
2026-04-30 13:00 51.13398 -3.07604 5754 ft 135 kts 60°
2026-04-30 13:01 51.14005 -3.06482 5772 ft 135 kts 60°
2026-04-30 13:01 51.14626 -3.05333 5805 ft 136 kts 60°
2026-04-30 13:01 51.15235 -3.04201 5823 ft 136 kts 60°
2026-04-30 13:01 51.15852 -3.03056 5840 ft 137 kts 60°
2026-04-30 13:02 51.16467 -3.01923 5853 ft 136 kts 60°
2026-04-30 13:02 51.17083 -3.00796 5875 ft 136 kts 60°
2026-04-30 13:02 51.17706 -2.99637 5890 ft 135 kts 60°
2026-04-30 13:02 51.18309 -2.98518 5904 ft 133 kts 59°
2026-04-30 13:03 51.18919 -2.97403 5922 ft 133 kts 61°
2026-04-30 13:03 51.19528 -2.96294 5907 ft 132 kts 59°
2026-04-30 13:03 51.20304 -2.95510 5823 ft 140 kts 32°
2026-04-30 13:03 51.21218 -2.94917 5826 ft 142 kts 31°
2026-04-30 13:04 51.22137 -2.94331 5840 ft 142 kts 31°
2026-04-30 13:04 51.23052 -2.93758 5872 ft 142 kts 31°
2026-04-30 13:04 51.23984 -2.93176 5863 ft 143 kts 31°
2026-04-30 13:04 51.24901 -2.92606 5857 ft 143 kts 31°
2026-04-30 13:05 51.25829 -2.92022 5838 ft 143 kts 31°
2026-04-30 13:05 51.26762 -2.91435 5867 ft 143 kts 31°